Temperature
18 18 17 17 17 17 17 16 16 16 16 16 16 15 15 15 15 15 15 15 15 15 15 14 14 14 14 14 14 14 14 14 14 14 14 14 14 14 14 14 14 14 14
18 18 18 17 17 17 17 16 16 16 16 16 16 15 15 15 15 15 15 15 15 15 14 14 14 14 14 14 14 14 14 14 14 14 14 14 14 14 14 14 13 13 13
18 18 18 17 17 17 17 17 16 16 16 16 16 15 15 15 15 15 15 15 14 14 14 14 14 14 14 14 14 14 14 14 14 14 14 14 14 13 13 13 13 13 13
18 18 18 17 17 17 17 17 16 16 16 16 16 15 15 15 15 15 15 15 15 14 14 14 14 14 14 14 14 14 14 14 14 14 14 14 14 14 13 13 13 13 13
18 18 18 18 17 17 17 17 16 16 16 16 15 15 15 15 15 15 15 15 15 15 14 14 14 14 14 14 14 14 14 14 14 14 14 14 14 14 14 13 13 13 13
18 18 18 18 17 17 17 17 16 16 16 16 15 15 15 15 15 15 15 15 15 15 15 15 14 14 14 14 14 14 14 14 14 14 14 14 14 14 14 13 13 13 13
18 18 18 18 17 17 17 17 16 16 16 16 15 15 15 15 15 15 15 15 15 15 15 15 14 14 14 14 14 14 14 14 14 14 14 14 14 14 14 14 13 13 13
18 18 18 18 17 17 17 17 16 16 16 16 15 15 15 15 15 15 15 15 15 15 15 15 15 15 14 14 14 14 14 14 14 14 14 14 14 14 14 14 13 13 13
18 18 18 18 18 17 17 17 17 16 16 16 16 15 15 15 15 15 15 15 15 15 15 15 15 14 14 14 14 14 14 14 14 14 14 14 14 14 14 13 13 13 13
18 18 18 18 18 17 17 17 17 16 16 16 16 16 15 15 15 15 15 15 15 15 15 14 14 14 14 14 14 14 14 14 14 14 14 14 14 14 14 13 13 13 13
18 18 18 18 17 17 17 17 17 16 16 16 16 16 16 15 15 15 15 15 15 15 15 15 14 14 14 14 14 14 14 14 14 14 14 14 14 14 13 13 13 13 13
18 18 18 18 17 17 17 17 17 16 16 16 16 16 16 15 15 15 15 15 15 15 15 15 14 14 14 14 14 14 14 14 14 14 14 14 14 13 13 13 13 13 13
18 18 17 17 17 17 17 17 16 16 16 16 16 16 16 16 15 15 15 15 15 15 15 15 14 14 14 14 14 14 14 14 14 14 13 13 13 13 13 13 13 13 13
17 17 17 17 17 17 17 17 16 16 16 16 16 16 16 16 15 15 15 15 15 15 15 14 14 14 14 14 14 14 14 13 13 13 13 13 13 13 13 13 13 13 13
17 17 17 17 17 17 17 17 16 16 16 16 16 16 16 16 15 15 15 15 15 14 14 14 14 14 14 14 14 14 13 13 13 13 13 13 13 13 12 12 12 12 12
17 17 17 17 17 17 17 17 16 16 16 16 16 16 16 15 15 15 15 15 14 14 14 14 14 14 14 14 14 13 13 13 13 13 13 13 12 12 12 12 12 12 12
17 17 17 17 17 17 17 16 16 16 16 16 16 16 16 15 15 15 15 15 14 14 14 14 14 14 14 13 13 13 13 13 13 13 13 12 12 12 12 12 12 12 11
17 17 17 17 17 17 16 16 16 16 16 16 15 15 15 15 15 15 15 14 14 14 14 14 14 13 13 13 13 13 13 13 13 13 12 12 12 12 12 12 12 12 11
18 18 17 17 16 16 16 16 16 15 15 15 15 15 15 15 15 15 15 14 14 14 14 13 13 13 13 13 13 13 12 12 12 12 12 12 12 12 11 11 11 11 11
17 17 17 16 16 16 16 16 15 15 15 15 15 15 15 15 14 14 14 14 14 14 13 13 13 13 13 13 12 12 12 12 12 12 12 12 12 11 11 11 11 11 11
17 17 16 16 16 16 15 15 15 15 15 15 14 14 14 14 14 14 14 14 14 14 13 13 13 12 12 12 12 12 12 12 12 12 12 11 11 11 11 11 11 10 10
16 16 16 16 16 15 15 15 15 15 14 14 14 14 14 14 14 14 13 13 13 13 13 13 12 12 12 12 12 12 12 11 11 11 11 11 11 11 10 10 10 10 10
16 16 15 15 15 15 15 15 15 14 14 14 13 13 13 13 13 13 13 13 13 13 13 13 12 12 12 12 12 11 11 11 11 11 11 10 10 10 10 10 10 10 9
15 15 15 15 14 14 14 14 14 14 14 13 13 13 13 13 13 12 12 12 12 12 12 12 12 12 12 12 11 11 11 11 11 11 10 10 10 10 10 10 9 9 9
15 15 14 14 14 14 14 14 13 13 13 13 13 13 12 12 12 12 12 12 12 12 12 12 12 12 12 11 11 11 11 11 10 10 10 10 10 10 10 9 9 9 9
14 14 14 14 14 13 13 13 13 13 13 12 12 12 12 12 12 12 12 11 11 11 11 11 11 11 11 11 11 11 11 10 10 10 10 10 10 9 9 9 9 8 8
Wind_Speed
3 2 2 3 3 2 2 2 3 3 3 2 2 2 2 2 2 3 4 4 4 5 5 4 4 4 4 4 5 4 5 3 2 3 4 4 4 5 4 4 4 5 6
3 3 3 3 3 3 2 2 3 3 3 2 2 2 2 1 1 2 4 4 4 4 5 4 3 3 4 4 4 4 3 2 2 3 3 2 4 4 4 4 3 4 5
6 4 4 4 3 4 3 3 3 2 2 3 3 3 3 3 3 3 3 3 3 3 4 4 4 4 3 3 3 3 3 2 2 2 3 3 1 1 3 4 4 4 3
4 5 5 4 4 4 3 3 2 2 2 3 3 4 2 1 0 0 1 2 3 3 3 4 4 3 3 3 2 2 2 3 2 1 2 2 3 2 1 3 3 4 4
5 6 6 5 4 3 3 3 3 2 2 3 3 4 3 2 1 1 2 2 3 3 3 3 4 3 2 2 2 2 2 2 2 2 2 2 2 2 2 0 3 3 3
4 5 4 4 3 3 3 3 3 2 2 3 3 4 4 3 3 1 1 1 1 2 2 3 3 3 2 2 2 2 3 2 2 2 2 2 2 2 2 2 0 1 2
4 4 4 5 4 4 4 3 4 2 2 3 3 4 4 4 4 3 2 1 0 1 0 2 2 2 2 2 3 3 3 3 3 3 2 1 1 2 3 3 1 1 2
4 4 5 5 5 4 4 4 4 3 3 3 3 3 3 3 3 3 2 2 2 1 1 2 2 2 2 2 3 3 2 2 3 3 2 2 1 2 3 3 3 2 2
4 4 4 4 4 5 5 5 5 4 3 3 2 2 3 3 3 3 2 2 2 1 2 2 2 2 2 3 3 2 2 3 2 2 2 2 2 2 2 2 3 4 2
3 3 3 4 4 4 3 4 4 4 3 3 3 2 2 3 3 3 3 2 2 2 2 2 2 2 2 3 3 2 2 4 2 2 3 2 2 2 2 2 2 2 3
4 4 3 3 3 3 3 3 3 3 2 3 2 2 2 2 2 2 2 3 2 2 2 3 3 3 2 2 2 2 3 3 2 2 3 2 2 2 2 2 2 2 3
3 3 4 3 3 3 2 3 3 2 3 3 3 3 2 2 2 2 2 2 2 2 2 3 3 3 3 3 3 3 3 3 3 2 2 2 2 2 2 2 2 2 2
2 2 3 3 3 3 3 3 3 3 2 2 3 3 3 3 3 2 2 2 2 2 2 3 3 3 3 3 3 3 3 3 3 3 2 1 2 2 1 2 2 1 2
3 3 3 2 3 3 3 3 3 3 3 3 3 3 3 4 3 3 2 2 2 3 2 2 3 3 3 3 3 4 3 3 2 2 2 2 2 2 2 2 2 2 3
2 3 3 3 2 2 2 2 2 2 2 3 3 3 3 3 3 2 2 2 2 3 3 3 3 2 3 3 4 4 4 3 2 2 1 1 1 2 2 2 3 3 3
4 4 3 3 3 3 3 2 2 2 2 3 3 3 3 3 3 3 3 3 2 2 3 3 3 3 2 4 6 5 4 3 3 2 1 1 1 1 2 3 4 5 4
6 5 5 5 5 5 4 4 3 3 3 3 3 3 3 3 3 3 3 3 3 3 3 3 3 3 3 4 5 6 5 3 3 2 2 1 1 1 2 2 2 2 3
6 6 6 5 4 4 3 3 2 3 3 3 2 3 3 3 3 3 3 3 3 3 3 3 3 2 2 4 5 7 5 3 2 2 2 2 1 1 3 3 2 1 1
6 6 5 5 4 3 3 3 3 3 3 3 3 3 4 4 3 3 3 3 3 3 3 2 3 3 2 3 5 7 4 3 2 1 1 2 2 2 4 4 2 1 2
3 3 3 3 3 2 4 4 3 3 4 4 4 3 3 4 4 4 3 2 3 3 3 2 3 3 3 3 5 7 4 3 2 1 1 2 3 3 4 4 3 2 2
2 3 4 3 3 3 4 4 3 4 4 3 3 3 3 4 4 3 3 3 3 3 3 3 2 2 2 3 5 6 4 4 3 2 1 1 2 3 3 4 3 3 2
3 3 4 2 2 4 5 4 3 3 2 3 3 3 3 3 3 4 3 3 4 4 3 3 1 1 1 2 4 6 5 5 4 3 2 2 2 3 3 2 2 2 2
3 3 4 3 1 2 4 4 3 2 3 3 3 3 2 2 3 4 4 3 3 3 3 3 2 1 1 1 3 4 5 6 4 3 3 3 2 2 1 1 1 2 2
3 3 4 3 2 2 3 3 2 3 4 4 3 3 3 2 2 3 3 3 3 3 3 3 3 2 1 2 2 2 2 3 2 1 1 2 2 2 1 1 1 1 1
3 4 4 4 3 2 2 2 2 4 4 4 3 3 3 3 2 2 2 3 4 5 5 4 4 4 3 4 5 4 3 3 3 3 2 2 1 1 0 0 0 0 1
3 3 3 3 2 2 2 2 3 4 5 4 3 3 3 2 2 3 1 0 1 2 4 3 4 3 4 4 5 5 4 4 6 4 2 2 2 2 2 2 1 1 2
Wind_Direction
234 194 174 156 129 117 126 136 124 119 109 91 88 78 49 19 24 35 50 73 98 110 109 105 96 94 94 96 96 94 83 70 73 78 56 34 40 43 36 39 43 40 42
215 194 177 168 157 154 152 145 146 144 141 130 117 114 111 66 21 23 47 60 84 108 119 117 120 113 105 97 93 97 97 70 56 95 88 36 11 19 29 30 37 34 38
209 200 189 190 175 175 177 174 171 162 142 122 100 81 61 44 31 28 25 29 66 85 105 120 125 126 121 125 119 112 113 116 50 62 118 125 192 342 4 21 28 24 29
205 198 195 194 195 195 174 165 163 154 136 128 127 125 124 120 233 5 21 31 57 71 89 108 121 121 120 130 139 126 124 125 118 59 61 108 147 137 15 355 9 22 31
204 202 198 192 186 176 167 167 150 145 141 139 139 132 131 141 108 70 62 45 41 61 85 105 115 115 118 128 120 112 120 129 134 133 112 84 71 95 134 33 347 5 13
200 194 182 163 162 155 156 157 151 161 161 155 149 151 154 147 124 110 89 43 30 36 71 107 111 117 120 127 125 119 122 125 122 121 122 138 142 152 135 143 1 0 347
183 180 175 176 174 167 167 166 162 178 181 172 176 178 174 166 168 174 169 156 90 23 9 104 113 115 129 129 120 116 115 121 123 129 132 144 148 139 135 130 131 63 352
183 186 187 185 181 179 176 173 175 186 191 188 196 193 183 176 180 182 175 178 184 200 176 123 114 114 130 132 120 111 111 114 114 114 122 118 110 126 136 144 135 96 28
187 190 183 177 180 183 187 184 180 184 192 191 186 191 191 184 182 178 175 184 190 181 149 134 122 108 106 114 116 108 108 107 100 105 105 93 82 94 114 127 138 138 128
181 187 189 185 182 183 182 173 181 187 188 182 185 189 187 187 176 162 175 185 191 165 148 144 138 121 114 110 111 107 103 102 90 96 94 81 82 81 85 111 110 118 141
187 188 187 184 170 155 152 161 172 177 185 186 181 172 177 166 157 164 186 190 182 172 173 162 152 149 142 131 132 129 124 114 97 87 100 91 97 92 86 94 101 105 120
179 175 167 153 145 154 159 168 176 182 196 191 180 178 171 155 157 180 193 180 180 176 170 150 148 154 151 145 153 145 129 131 128 116 102 87 102 99 101 110 115 126 134
145 138 139 151 160 167 172 179 191 197 192 171 169 167 169 167 176 184 178 165 160 151 145 146 155 163 159 151 153 144 134 134 135 135 135 136 120 107 113 127 129 133 120
163 157 167 175 171 172 176 180 196 195 178 164 164 176 191 188 188 183 171 171 165 160 162 161 164 165 159 153 147 137 135 133 122 125 141 156 153 149 148 133 133 127 115
177 182 187 186 176 176 185 187 192 185 175 169 182 197 193 182 174 173 172 165 162 169 163 151 149 151 155 163 154 149 149 146 131 102 113 150 159 164 160 145 144 135 126
204 201 193 186 191 199 199 188 195 195 170 176 198 193 173 166 170 176 167 157 161 161 144 150 155 159 176 164 160 149 148 149 148 148 139 104 102 141 140 147 148 146 143
204 200 202 205 206 207 199 199 202 182 166 175 185 177 167 170 178 174 161 167 172 159 152 159 158 176 192 169 163 157 148 148 157 163 154 137 101 101 107 109 120 152 166
203 204 204 206 208 202 192 190 171 166 172 175 180 179 169 172 172 164 174 181 169 164 171 172 175 182 200 177 168 156 145 142 157 172 175 168 180 150 139 120 101 76 35
202 202 199 195 189 182 176 158 161 165 173 190 200 193 181 176 170 174 181 177 163 165 168 164 168 171 199 175 163 148 140 142 161 174 167 179 194 192 148 131 129 69 347
187 181 167 156 164 174 153 148 163 169 198 211 208 195 179 176 178 180 170 153 158 168 159 155 169 172 187 176 166 155 145 151 166 176 207 206 199 191 162 153 156 190 254
165 153 146 154 180 172 152 156 168 202 216 200 173 171 176 179 177 165 157 145 143 141 144 151 160 171 185 185 174 165 161 172 174 187 218 230 202 192 182 169 178 207 187
137 144 147 157 167 162 156 164 203 220 182 158 156 166 171 173 165 153 150 147 143 146 155 154 169 208 216 196 193 183 182 172 173 199 212 212 205 196 189 180 205 183 129
155 152 149 145 148 171 168 181 218 181 145 143 156 160 153 150 150 153 153 147 150 158 176 174 193 223 228 232 212 199 191 180 178 194 192 198 202 188 184 189 148 124 121
164 155 147 152 186 199 188 196 189 160 147 154 163 158 157 153 151 155 159 162 174 180 185 194 203 210 220 232 217 208 195 180 179 173 154 135 122 113 99 80 86 117 160
170 164 166 179 206 203 192 182 161 157 154 159 165 165 167 163 159 160 175 186 198 192 189 199 193 191 219 228 202 181 186 185 175 142 110 102 102 105 100 25 153 164 158
169 168 174 181 198 195 203 191 170 163 163 166 173 177 175 172 165 157 129 179 186 195 196 185 177 202 207 190 181 187 180 164 151 134 147 172 184 203 215 223 243 238 231
Height
1533 1534 1535 1537 1538 1539 1540 1541 1541 1542 1542 1543 1544 1544 1544 1544 1544 1544 1544 1544 1544 1544 1544 1545 1545 1546 1546 1546 1547 1547 1547 1547 1548 1548 1548 1549 1549 1549 1549 1549 1549 1549 1548
1532 1534 1535 1536 1537 1539 1540 1541 1541 1542 1543 1544 1544 1545 1545 1545 1545 1545 1545 1545 1546 1546 1546 1546 1546 1547 1547 1548 1548 1548 1549 1549 1549 1550 1550 1550 1552 1550 1550 1550 1550 1549 1549
1531 1533 1534 1535 1537 1538 1539 1540 1541 1542 1543 1544 1545 1545 1546 1546 1546 1546 1546 1546 1547 1547 1547 1548 1548 1548 1548 1549 1549 1549 1550 1550 1551 1551 1551 1551 1551 1551 1551 1551 1550 1550 1549
1530 1532 1533 1534 1536 1538 1539 1540 1541 1542 1543 1544 1545 1545 1546 1546 1547 1547 1547 1547 1548 1548 1548 1549 1549 1549 1549 1550 1550 1550 1551 1551 1551 1551 1552 1552 1552 1551 1551 1552 1551 1550 1550
1528 1530 1532 1534 1535 1537 1539 1540 1541 1542 1543 1544 1545 1545 1546 1547 1547 1548 1548 1548 1548 1549 1549 1550 1550 1550 1550 1550 1551 1551 1551 1551 1552 1552 1552 1552 1552 1551 1551 1551 1551 1551 1550
1526 1529 1531 1533 1535 1536 1538 1539 1541 1542 1543 1543 1544 1545 1546 1546 1547 1548 1548 1549 1549 1549 1550 1550 1550 1551 1551 1551 1551 1551 1551 1552 1552 1552 1552 1552 1552 1551 1551 1551 1551 1551 1551
1525 1527 1530 1532 1533 1535 1537 1538 1539 1541 1542 1543 1544 1544 1545 1546 1547 1548 1548 1549 1549 1549 1550 1550 1551 1551 1551 1551 1551 1551 1552 1552 1552 1552 1552 1552 1552 1552 1552 1551 1551 1551 1551
1524 1526 1528 1531 1532 1534 1536 1537 1539 1540 1541 1542 1543 1544 1545 1546 1547 1548 1548 1549 1549 1550 1550 1550 1551 1551 1551 1552 1552 1552 1552 1552 1552 1552 1552 1552 1552 1552 1552 1551 1551 1551 1551
1523 1526 1528 1530 1532 1533 1535 1537 1538 1539 1540 1542 1542 1543 1544 1545 1546 1547 1548 1549 1549 1550 1550 1551 1551 1551 1551 1552 1552 1552 1552 1552 1552 1552 1552 1551 1551 1551 1552 1552 1552 1552 1551
1523 1525 1527 1529 1531 1533 1534 1536 1537 1539 1540 1541 1541 1542 1543 1544 1545 1546 1547 1548 1549 1549 1550 1550 1550 1551 1551 1551 1551 1551 1552 1552 1552 1552 1552 1552 1552 1552 1552 1552 1552 1552 1552
1522 1524 1526 1528 1530 1532 1533 1534 1536 1537 1538 1539 1540 1541 1542 1543 1544 1545 1546 1547 1548 1549 1549 1550 1550 1550 1550 1550 1551 1551 1551 1551 1552 1552 1552 1552 1552 1551 1552 1552 1551 1551 1551
1521 1523 1525 1527 1528 1530 1532 1533 1534 1535 1537 1538 1539 1540 1541 1542 1543 1544 1545 1546 1547 1548 1548 1548 1549 1549 1549 1550 1550 1550 1551 1551 1551 1551 1551 1551 1551 1551 1551 1551 1551 1551 1551
1520 1522 1524 1525 1527 1528 1530 1531 1532 1534 1535 1536 1537 1538 1539 1540 1541 1542 1544 1545 1546 1546 1547 1547 1548 1548 1549 1549 1549 1549 1550 1550 1550 1551 1551 1551 1551 1551 1551 1551 1550 1550 1550
1519 1521 1522 1524 1525 1527 1528 1529 1530 1532 1533 1534 1535 1536 1538 1539 1540 1541 1542 1543 1544 1545 1545 1546 1547 1547 1548 1548 1548 1549 1549 1549 1550 1550 1550 1551 1551 1550 1550 1550 1550 1549 1549
1518 1519 1520 1522 1523 1525 1526 1527 1528 1530 1531 1532 1533 1534 1536 1537 1538 1539 1540 1541 1542 1543 1544 1544 1545 1546 1546 1547 1547 1548 1548 1549 1549 1549 1549 1550 1550 1550 1549 1549 1549 1549 1548
1516 1517 1519 1520 1521 1523 1524 1525 1527 1528 1529 1530 1531 1532 1533 1534 1536 1537 1538 1539 1540 1541 1542 1542 1543 1544 1545 1546 1546 1547 1547 1547 1548 1548 1548 1549 1549 1549 1549 1548 1548 1548 1547
1514 1515 1517 1518 1520 1521 1522 1524 1525 1526 1527 1528 1529 1530 1531 1532 1533 1535 1536 1537 1538 1539 1540 1540 1541 1542 1543 1544 1545 1545 1546 1546 1546 1547 1547 1547 1547 1547 1547 1547 1547 1546 1546
1512 1513 1515 1516 1518 1520 1521 1522 1523 1524 1525 1526 1527 1528 1529 1530 1531 1532 1533 1534 1535 1536 1537 1538 1539 1540 1541 1542 1543 1543 1544 1544 1545 1545 1545 1546 1546 1546 1545 1545 1545 1545 1544
1509 1511 1513 1514 1516 1517 1519 1520 1520 1521 1522 1523 1524 1525 1527 1527 1529 1530 1531 1532 1533 1534 1535 1536 1537 1538 1539 1540 1541 1541 1542 1542 1542 1543 1543 1543 1543 1544 1543 1543 1543 1542 1542
1508 1509 1511 1512 1514 1515 1516 1517 1518 1518 1519 1520 1522 1523 1524 1525 1526 1527 1528 1529 1530 1531 1532 1533 1534 1535 1536 1538 1538 1539 1540 1540 1540 1541 1541 1541 1541 1541 1541 1541 1540 1540 1540
1506 1507 1508 1510 1511 1513 1514 1515 1515 1516 1517 1518 1519 1520 1521 1522 1523 1524 1526 1527 1528 1529 1529 1530 1531 1533 1534 1535 1536 1537 1537 1537 1538 1538 1538 1539 1539 1539 1539 1538 1538 1538 1537
1503 1505 1506 1507 1509 1511 1512 1512 1513 1514 1515 1516 1516 1518 1519 1520 1520 1522 1523 1524 1525 1526 1527 1528 1529 1530 1531 1532 1533 1534 1534 1535 1535 1535 1535 1536 1536 1536 1536 1535 1535 1535 1535
1501 1502 1504 1505 1507 1508 1509 1510 1511 1512 1512 1513 1514 1515 1516 1517 1518 1519 1520 1521 1522 1523 1524 1525 1526 1527 1528 1529 1530 1530 1531 1531 1532 1532 1533 1533 1533 1533 1533 1533 1532 1532 1531
1499 1500 1502 1503 1504 1505 1506 1507 1508 1509 1509 1510 1511 1512 1513 1514 1515 1516 1517 1518 1519 1520 1521 1522 1523 1524 1525 1526 1526 1527 1528 1528 1529 1529 1529 1530 1530 1529 1529 1529 1529 1528 1528
1497 1498 1499 1500 1502 1503 1503 1504 1505 1506 1506 1507 1508 1509 1510 1511 1512 1513 1514 1515 1516 1518 1518 1519 1520 1520 1521 1522 1523 1524 1524 1524 1525 1525 1526 1526 1526 1526 1525 1525 1525 1525 1524
1494 1495 1497 1498 1499 1500 1501 1501 1502 1503 1503 1504 1505 1506 1507 1508 1509 1509 1510 1511 1513 1514 1515 1516 1517 1517 1518 1519 1520 1520 1521 1521 1522 1522 1521 1521 1521 1522 1521 1521 1521 1521 1520